Find Starlink 3701

NORAD ID: 52095 Int'l Des: 2022-029 Owner: SPXS Country: US Constellation: starlink operational
LEOCIRCULAR

当前视图

正在加载3D地球...

About Starlink 3701

Starlink 3701 (NORAD 52095) is a starlink constellation satellite (v1.5) launched Mar 19, 2022 by SPXS of US. It operates in LEO, CIRCULAR orbit with a mass of 297.00 kg.

关于 Starlink 3701

正在加载描述...

即将过境

Passes for default location (London). Set your location on the main map for personalized predictions.

高度历史

Loading altitude history...

两行轨道根数

1 52095U 22029H 26170.16668980 .00004027 00000-0 20170-3 0 9992
2 52095 53.1607 353.1618 0001197 100.5889 167.8088 15.19584760 5785
Epoch: Jun 19, 2026 • Age: 6 hours

当前状态

高度 525.9 km
速度 7.60 km/s
星下点 -52.10°S, 176.72°W
发射日期 Mar 19, 2022
运行时间 4.2 years
类型 internet

技术详情

分类 Payload
质量 297.00 kg
干质量 275.00 kg
总质量 297.00 kg
长度 0.20 m
直径 2.80 m
跨度 9.00 m
形状 Box + pan
制造商 SPXS
平台类型 Starlink
阶段状态 In Orbit
所有者/国家 SPXS/US

Most Searched